METEOR-M2 3

Last updated on Tue Sep 15 2026 00:02:50 GMT+0000 (Coordinated Universal Time)

1 57166U 23091A 26257.61240375 -.00000021 00000+0 95360-5 0 9991 2 57166 98.5996 310.7212 0002798 269.8227 90.2631 14.24052502167247
UTC large
Height (km)
Speed (km/s)
/
Latitude / Longitude
Inclination (degrees)
Orbital Period (minutes)
Azimuth
Elevation
Range (km)
Doppler Factor

Next 0 passes for location: London (51.5072 / 0.1276)

No passes found over London.
METEOR-M2 3